timestamp,surface_pressure_avg,surface_temp_avg,battery_voltage,lat,long
2018-08-19 00:00:00+00:00,228.2865,17.73,13.05,47.84626,-54.09684
2018-08-19 00:10:00+00:00,227.6231,17.72,13.05,47.84626,-54.09684
2018-08-19 00:20:00+00:00,232.1347,17.7,13.05,47.84626,-54.09684
2018-08-19 00:30:00+00:00,233.3431,17.72,13.05,47.84626,-54.09684
2018-08-19 00:40:00+00:00,233.4499,17.74,13.13,47.84626,-54.09684
2018-08-19 00:50:00+00:00,236.8531,17.74,13.13,47.84626,-54.09684
2018-08-19 01:00:00+00:00,240.3931,17.75,13.05,47.84626,-54.09684
2018-08-19 01:10:00+00:00,240.4415,17.75,12.97,47.84626,-54.09684
2018-08-19 01:20:00+00:00,239.9131,17.76,13.05,47.84626,-54.09684
2018-08-19 01:30:00+00:00,243.3914,17.76,13.05,47.84626,-54.09684
2018-08-19 01:40:00+00:00,247.8097,17.75,13.05,47.84626,-54.09684
2018-08-19 01:50:00+00:00,248.183,17.74,13.13,47.84626,-54.09684
2018-08-19 02:00:00+00:00,249.5064,17.75,13.05,47.84626,-54.09684
2018-08-19 02:10:00+00:00,255.4581,17.75,12.97,47.84626,-54.09684
2018-08-19 02:20:00+00:00,258.3898,17.75,13.05,47.84626,-54.09684
2018-08-19 02:30:00+00:00,257.3964,17.74,13.05,47.84626,-54.09684
2018-08-19 02:40:00+00:00,257.3148,17.74,13.05,47.84626,-54.09684
2018-08-19 02:50:00+00:00,265.518,17.73,13.05,47.84626,-54.09684
2018-08-19 03:00:00+00:00,270.2113,17.73,13.05,47.84626,-54.09684
2018-08-19 03:10:00+00:00,269.1998,17.73,12.97,47.84626,-54.09684
2018-08-19 03:20:00+00:00,268.6064,17.73,13.05,47.84626,-54.09684
2018-08-19 03:30:00+00:00,277.3547,17.71,13.05,47.84626,-54.09684
2018-08-19 03:40:00+00:00,285.718,17.74,13.05,47.84626,-54.09684
2018-08-19 03:50:00+00:00,288.778,17.7,13.05,47.84626,-54.09684
2018-08-19 04:00:00+00:00,291.3797,17.72,13.05,47.84626,-54.09684
2018-08-19 04:10:00+00:00,299.5447,17.7,12.97,47.84626,-54.09684
2018-08-19 04:20:00+00:00,303.5513,17.72,13.05,47.84626,-54.09684
2018-08-19 04:30:00+00:00,302.5881,17.7,13.05,47.84626,-54.09684
2018-08-19 04:40:00+00:00,304.5596,17.7,13.05,47.84626,-54.09684
2018-08-19 04:50:00+00:00,311.4896,17.71,13.05,47.84626,-54.09684
2018-08-19 05:00:00+00:00,313.5596,17.7,12.97,47.84626,-54.09684
2018-08-19 05:10:00+00:00,312.1763,17.7,12.89,47.84626,-54.09684
2018-08-19 05:20:00+00:00,315.0864,17.7,12.97,47.84626,-54.09684
2018-08-19 05:30:00+00:00,318.9613,17.7,12.97,47.84626,-54.09684
2018-08-19 05:40:00+00:00,321.9064,17.7,13.05,47.84626,-54.09684
2018-08-19 05:50:00+00:00,319.9564,17.7,13.05,47.84626,-54.09684
2018-08-19 06:00:00+00:00,318.4479,17.7,12.97,47.84626,-54.09684
2018-08-19 06:10:00+00:00,317.9348,17.7,12.89,47.84626,-54.09684
2018-08-19 06:20:00+00:00,315.3563,17.7,12.97,47.84626,-54.09684
2018-08-19 06:30:00+00:00,315.773,17.7,12.97,47.84626,-54.09684
2018-08-19 06:40:00+00:00,312.1396,17.7,12.97,47.84626,-54.09684
2018-08-19 06:50:00+00:00,310.7563,17.7,12.97,47.84626,-54.09684
2018-08-19 07:00:00+00:00,310.8097,17.7,12.97,47.84626,-54.09684
2018-08-19 07:10:00+00:00,311.0164,17.7,12.89,47.84626,-54.09684
2018-08-19 07:20:00+00:00,304.3947,17.7,12.97,47.84626,-54.09684
2018-08-19 07:30:00+00:00,297.663,17.7,12.97,47.84626,-54.09684
2018-08-19 07:40:00+00:00,295.978,17.7,12.97,47.84626,-54.09684
2018-08-19 07:50:00+00:00,291.2396,17.7,12.97,47.84626,-54.09684
2018-08-19 08:00:00+00:00,281.6548,17.7,12.89,47.84626,-54.09684
2018-08-19 08:10:00+00:00,278.6647,17.7,12.81,47.84626,-54.09684
2018-08-19 08:20:00+00:00,277.8347,17.7,12.89,47.84626,-54.09684
2018-08-19 08:30:00+00:00,269.1497,17.7,12.97,47.84626,-54.09684
2018-08-19 08:40:00+00:00,258.7498,17.7,12.97,47.84626,-54.09684
2018-08-19 08:50:00+00:00,254.9131,17.7,12.97,47.84626,-54.09684
2018-08-19 09:00:00+00:00,250.9514,17.7,12.89,47.84626,-54.09684
2018-08-19 09:10:00+00:00,242.1031,17.7,12.81,47.84626,-54.09684
2018-08-19 09:20:00+00:00,236.0397,17.7,12.89,47.84626,-54.09684
2018-08-19 09:30:00+00:00,235.0282,17.7,12.89,47.84626,-54.09684
2018-08-19 09:40:00+00:00,232.6397,17.7,12.97,47.84626,-54.09684
2018-08-19 09:50:00+00:00,224.5147,17.7,12.97,47.84626,-54.09684
2018-08-19 10:00:00+00:00,220.0265,17.7,12.89,47.84626,-54.09684
2018-08-19 10:10:00+00:00,223.0298,17.7,12.81,47.84626,-54.09684
2018-08-19 10:20:00+00:00,219.3331,17.7,12.89,47.84626,-54.09684
2018-08-19 10:30:00+00:00,216.8297,17.7,12.89,47.84626,-54.09684
2018-08-19 10:40:00+00:00,219.2731,17.7,12.89,47.84626,-54.09684
2018-08-19 10:50:00+00:00,219.9831,17.7,12.97,47.84626,-54.09684
2018-08-19 11:00:00+00:00,216.9465,17.69,12.89,47.84626,-54.09684
2018-08-19 11:10:00+00:00,214.9915,17.68,12.81,47.84626,-54.09684
2018-08-19 11:20:00+00:00,219.0681,17.69,12.89,47.84626,-54.09684
2018-08-19 11:30:00+00:00,222.3365,17.7,12.97,47.84626,-54.09684
2018-08-19 11:40:00+00:00,220.4515,17.67,12.97,47.84626,-54.09684
2018-08-19 11:50:00+00:00,222.8164,17.68,13.05,47.84626,-54.09684
2018-08-19 12:00:00+00:00,229.8997,17.69,12.97,47.84626,-54.09684
2018-08-19 12:10:00+00:00,231.6481,17.7,12.89,47.84626,-54.09684
2018-08-19 12:20:00+00:00,229.4564,17.69,12.97,47.84626,-54.09684
2018-08-19 12:30:00+00:00,228.6864,17.69,12.97,47.84626,-54.09684
2018-08-19 12:40:00+00:00,231.7514,17.69,13.05,47.84626,-54.09684
2018-08-19 12:50:00+00:00,234.7981,17.69,13.13,47.84626,-54.09684
2018-08-19 13:00:00+00:00,234.1413,17.7,13.21,47.84626,-54.09684
2018-08-19 13:10:00+00:00,235.2347,17.69,13.13,47.84626,-54.09684
2018-08-19 13:20:00+00:00,237.4197,17.7,13.29,47.84626,-54.09684
2018-08-19 13:30:00+00:00,239.5697,17.7,13.37,47.84626,-54.09684
2018-08-19 13:40:00+00:00,242.2314,17.7,13.44,47.84626,-54.09684
2018-08-19 13:50:00+00:00,242.3314,17.7,13.53,47.84626,-54.09684
2018-08-19 14:00:00+00:00,240.5264,17.68,13.53,47.84626,-54.09684
2018-08-19 14:10:00+00:00,243.9498,17.7,13.53,47.84626,-54.09684
2018-08-19 14:20:00+00:00,251.0164,17.7,13.68,47.84626,-54.09684
2018-08-19 14:30:00+00:00,253.2863,17.7,13.68,47.84626,-54.09684
2018-08-19 14:40:00+00:00,253.5815,17.7,13.84,47.84626,-54.09684
2018-08-19 14:50:00+00:00,260.4814,17.7,13.92,47.84626,-54.09684
2018-08-19 15:00:00+00:00,265.4849,17.7,13.84,47.84626,-54.09684
2018-08-19 15:10:00+00:00,265.4014,17.7,13.84,47.84626,-54.09684
2018-08-19 15:20:00+00:00,270.4114,17.7,14.08,47.84626,-54.09684
2018-08-19 15:30:00+00:00,281.4447,17.7,14.4,47.84626,-54.09684
2018-08-19 15:40:00+00:00,287.803,17.7,14.4,47.84626,-54.09684
2018-08-19 15:50:00+00:00,287.688,17.69,16.15,47.84626,-54.09684
2018-08-19 16:00:00+00:00,294.7364,17.7,15.67,47.84626,-54.09684
2018-08-19 16:10:00+00:00,304.7996,17.7,15.35,47.84626,-54.09684
2018-08-19 16:20:00+00:00,310.3796,17.7,14.56,47.84626,-54.09684
2018-08-19 16:30:00+00:00,307.8347,17.7,14.8,47.84626,-54.09684
2018-08-19 16:40:00+00:00,314.8079,17.7,14.64,47.84626,-54.09684
2018-08-19 16:50:00+00:00,322.1697,17.7,14.48,47.84626,-54.09684
2018-08-19 17:00:00+00:00,323.9147,17.72,14.48,47.84626,-54.09684
2018-08-19 17:10:00+00:00,322.5747,17.74,14.4,47.84626,-54.09684
2018-08-19 17:20:00+00:00,327.4098,17.76,14.48,47.84626,-54.09684
2018-08-19 17:30:00+00:00,329.4813,17.77,14.48,47.84626,-54.09684
2018-08-19 17:40:00+00:00,332.0896,17.8,14.48,47.84626,-54.09684
2018-08-19 17:50:00+00:00,335.5896,17.77,14.4,47.84626,-54.09684
2018-08-19 18:00:00+00:00,335.4713,17.79,14.32,47.84626,-54.09684
2018-08-19 18:10:00+00:00,335.4748,17.86,14.24,47.84626,-54.09684
2018-08-19 18:20:00+00:00,335.2379,17.8,14.32,47.84626,-54.09684
2018-08-19 18:30:00+00:00,335.0829,17.8,14.24,47.84626,-54.09684
2018-08-19 18:40:00+00:00,335.0098,17.8,14.24,47.84626,-54.09684
2018-08-19 18:50:00+00:00,333.5729,17.8,14.16,47.84626,-54.09684
2018-08-19 19:00:00+00:00,332.7896,17.8,14.08,47.84626,-54.09684
2018-08-19 19:10:00+00:00,332.1129,17.88,13.92,47.84626,-54.09684
2018-08-19 19:20:00+00:00,332.0297,17.88,14.0,47.84626,-54.09684
2018-08-19 19:30:00+00:00,328.7498,17.88,14.0,47.84626,-54.09684
2018-08-19 19:40:00+00:00,326.3181,17.9,14.0,47.84626,-54.09684
2018-08-19 19:50:00+00:00,323.6429,17.9,14.0,47.84626,-54.09684
2018-08-19 20:00:00+00:00,316.718,17.94,13.92,47.84626,-54.09684
2018-08-19 20:10:00+00:00,309.8863,17.96,13.84,47.84626,-54.09684
2018-08-19 20:20:00+00:00,306.9948,17.96,13.84,47.84626,-54.09684
2018-08-19 20:30:00+00:00,302.8647,17.95,13.84,47.84626,-54.09684
2018-08-19 20:40:00+00:00,295.2097,17.99,13.92,47.84626,-54.09684
2018-08-19 20:50:00+00:00,288.1281,17.97,13.92,47.84626,-54.09684
2018-08-19 21:00:00+00:00,284.7564,17.99,13.84,47.84626,-54.09684
2018-08-19 21:10:00+00:00,279.0681,18.0,13.68,47.84626,-54.09684
2018-08-19 21:20:00+00:00,269.8047,18.0,13.68,47.84626,-54.09684
2018-08-19 21:30:00+00:00,264.7047,18.0,13.68,47.84626,-54.09684
2018-08-19 21:40:00+00:00,264.208,18.0,13.68,47.84626,-54.09684
2018-08-19 21:50:00+00:00,259.6481,18.0,13.68,47.84626,-54.09684
2018-08-19 22:00:00+00:00,251.6264,18.0,13.6,47.84626,-54.09684
2018-08-19 22:10:00+00:00,248.2515,18.0,13.44,47.84626,-54.09684
2018-08-19 22:20:00+00:00,245.0831,18.0,13.44,47.84626,-54.09684
2018-08-19 22:30:00+00:00,239.9797,18.0,13.37,47.84626,-54.09684
2018-08-19 22:40:00+00:00,235.1531,18.0,13.37,47.84626,-54.09684
2018-08-19 22:50:00+00:00,235.3081,18.0,13.37,47.84626,-54.09684
2018-08-19 23:00:00+00:00,237.2246,18.0,13.29,47.84626,-54.09684
2018-08-19 23:10:00+00:00,235.6714,18.0,13.13,47.84626,-54.09684
2018-08-19 23:20:00+00:00,230.7531,18.0,13.21,47.84626,-54.09684
2018-08-19 23:30:00+00:00,228.2648,18.0,13.21,47.84626,-54.09684
2018-08-19 23:40:00+00:00,225.0048,18.0,13.21,47.84626,-54.09684
2018-08-19 23:50:00+00:00,223.9998,18.0,13.21,47.84626,-54.09684
